Photometre #385[Polarized_P] OHP_OBSERVATOIRE AOT

File : 20190924_385.hum

24/09/2019,06:16:07,TEMP=12.0,BA=5.64,STAT.A=8.5,ExtBa=13.41
24/09/2019,06:19:40,TEMP=12.5,BA=5.64,STAT.A=8.5,ExtBa=13.38
24/09/2019,06:23:52,TEMP=12.9,BA=5.60,STAT.A=8.5,ExtBa=13.38
24/09/2019,06:28:51,TEMP=13.1,BA=5.60,STAT.A=8.5,ExtBa=13.39
24/09/2019,06:34:50,TEMP=13.4,BA=5.60,STAT.A=8.5,ExtBa=13.39
24/09/2019,06:42:15,TEMP=14.3,BA=5.64,STAT.A=8.5,ExtBa=13.40
24/09/2019,06:51:37,TEMP=15.4,BA=5.64,STAT.B=8.5,ExtBa=13.40
24/09/2019,06:58:08,TEMP=16.7,BA=5.64,STAT.A=8.5,ExtBa=13.17
24/09/2019,07:01:08,TEMP=17.0,BA=5.64,STAT.A=8.5,ExtBa=13.23
24/09/2019,07:06:48,TEMP=17.6,BA=5.64,STAT.A=8.5,ExtBa=13.33
24/09/2019,07:13:15,TEMP=18.2,BA=5.64,STAT.A=8.5,ExtBa=13.37
24/09/2019,07:20:41,TEMP=18.3,BA=5.64,STAT.C=8.5,ExtBa=13.38
24/09/2019,07:33:40,TEMP=20.0,BA=5.60,STAT.A=8.5,ExtBa=13.15
24/09/2019,07:39:32,TEMP=19.7,BA=5.60,STAT.A=8.5,ExtBa=13.29
24/09/2019,07:51:50,TEMP=21.3,BA=5.64,STAT.A=8.5,ExtBa=13.36
24/09/2019,08:07:01,TEMP=21.3,BA=5.64,STAT.A=8.5,ExtBa=13.38
24/09/2019,08:26:23,TEMP=20.1,BA=5.64,STAT.B=9.0,ExtBa=13.38
24/09/2019,08:29:55,TEMP=20.1,BA=5.64,STAT.F
24/09/2019,08:44:54,TEMP=19.6,BA=5.64,STAT.D=9.0,ExtBa=13.38
24/09/2019,08:59:54,TEMP=20.2,BA=5.64,STAT.D=9.0,ExtBa=13.38
24/09/2019,09:14:54,TEMP=22.4,BA=5.64,STAT.D=8.5,ExtBa=13.38
24/09/2019,09:29:56,TEMP=23.6,BA=5.64,STAT.F
24/09/2019,09:44:54,TEMP=23.8,BA=5.64,STAT.D=9.0,ExtBa=13.34
24/09/2019,09:59:54,TEMP=22.9,BA=5.64,STAT.D=9.0,ExtBa=13.36
24/09/2019,10:14:54,TEMP=22.1,BA=5.64,STAT.D=9.0,ExtBa=13.38
24/09/2019,10:29:56,TEMP=21.5,BA=5.64,STAT.F
24/09/2019,10:44:54,TEMP=21.8,BA=5.64,STAT.D=9.0,ExtBa=13.38
24/09/2019,10:59:54,TEMP=22.3,BA=5.64,STAT.D=9.0,ExtBa=13.38
24/09/2019,11:14:54,TEMP=22.7,BA=5.64,STAT.D=9.0,ExtBa=13.38
24/09/2019,11:29:56,TEMP=22.4,BA=5.64,STAT.F
24/09/2019,11:44:54,TEMP=22.4,BA=5.64,STAT.D=9.0,ExtBa=13.38
24/09/2019,11:59:54,TEMP=23.1,BA=5.64,STAT.D=9.0,ExtBa=13.39
24/09/2019,12:14:54,TEMP=22.5,BA=5.64,STAT.D=9.0,ExtBa=13.38
24/09/2019,12:29:56,TEMP=22.4,BA=5.64,STAT.F
24/09/2019,12:44:54,TEMP=21.7,BA=5.64,STAT.D=9.0,ExtBa=13.39
24/09/2019,12:59:54,TEMP=22.1,BA=5.64,STAT.D=9.0,ExtBa=13.39
24/09/2019,13:14:54,TEMP=25.5,BA=5.64,STAT.D=8.5,ExtBa=13.39
24/09/2019,13:29:56,TEMP=24.4,BA=5.64,STAT.F
24/09/2019,13:44:54,TEMP=23.4,BA=5.64,STAT.D=9.0,ExtBa=13.39
24/09/2019,13:59:54,TEMP=22.7,BA=5.64,STAT.D=9.0,ExtBa=13.40
24/09/2019,14:14:54,TEMP=22.6,BA=5.64,STAT.D=9.0,ExtBa=13.40
24/09/2019,14:29:55,TEMP=22.7,BA=5.64,STAT.F
24/09/2019,14:33:27,TEMP=22.7,BA=5.56,STAT.B=9.0,ExtBa=13.38
24/09/2019,14:52:49,TEMP=22.0,BA=5.64,STAT.A=9.0,ExtBa=13.41
24/09/2019,15:08:00,TEMP=21.6,BA=5.64,STAT.A=9.0,ExtBa=13.40
24/09/2019,15:20:18,TEMP=22.2,BA=5.64,STAT.A=9.0,ExtBa=13.41
24/09/2019,15:30:30,TEMP=21.4,BA=5.64,STAT.A=9.0,ExtBa=13.41
24/09/2019,15:39:09,TEMP=21.0,BA=5.64,STAT.C=9.0,ExtBa=13.40
24/09/2019,15:46:35,TEMP=20.8,BA=5.56,STAT.A=9.0,ExtBa=13.42
24/09/2019,15:53:02,TEMP=20.4,BA=5.64,STAT.A=9.0,ExtBa=13.42
24/09/2019,15:58:42,TEMP=20.2,BA=5.64,STAT.A=9.0,ExtBa=13.42
24/09/2019,16:03:44,TEMP=20.1,BA=5.56,STAT.A=9.0,ExtBa=13.41
24/09/2019,16:08:13,TEMP=20.0,BA=5.56,STAT.B=9.0,ExtBa=13.41
24/09/2019,16:17:34,TEMP=19.9,BA=5.64,STAT.A=9.0,ExtBa=13.42
24/09/2019,16:24:58,TEMP=19.9,BA=5.64,STAT.A=9.0,ExtBa=13.42
24/09/2019,16:30:58,TEMP=19.8,BA=5.64,STAT.A=9.0,ExtBa=13.42
24/09/2019,16:36:11,TEMP=19.7,BA=5.64,STAT.A=9.0,ExtBa=13.42
24/09/2019,16:40:08,TEMP=19.7,BA=5.60,STAT.A=8.5,ExtBa=13.40
24/09/2019,16:43:42,TEMP=19.7,BA=5.60,STAT.A=8.5,ExtBa=13.40